Cherry Point, NC

11:29 AM EDT on April 27, 2017 (GMT -0400)
Cherry Point Marine Corps Air Station

Weather History for KNKT - February, 2013

Change the Weather History Date:

Friday, February 22, 2013

  Actual Average Record
Temperature  
Mean Temperature 42 °F -  
Max Temperature 48 °F 56 °F 77 °F (2003)
Min Temperature 37 °F 36 °F 28 °F (1999)
Degree Days  
Heating Degree Days 24    
Moisture  
Dew Point 37 °F    
Average Humidity 75    
Maximum Humidity 90    
Minimum Humidity 55    
Precipitation  
Precipitation 0.00 in - - ()
Sea Level Pressure  
Sea Level Pressure 30.22 in    
Wind  
Wind Speed 7 mph ()    
Max Wind Speed 12 mph    
Max Gust Speed -    
Visibility 9.8 miles    
Events      
Averages and records for this station are not official NWS values.
T = Trace of Precipitation, MM = Missing Value Source: Averaged Metar Reports

Daily Weather History Graph

Daily Weather History Graph

Search for Another Location

Airport or City:

Trip Planner

Search our weather history database for the weather conditions in past years. The results will help you decide how hot, cold, wet, or windy it might be!

Date:

Astronomy

Feb. 22, 2013 Rise Set
Actual Time 6:45 AM EST 5:57 PM EST
Civil Twilight 6:19 AM EST 6:22 PM EST
Nautical Twilight 5:50 AM EST 6:52 PM EST
Astronomical Twilight 5:20 AM EST 7:21 PM EST
Moon 3:10 PM EST (2/22) 4:24 AM EST (2/22)
Length of Visible Light 12h 03m
Length of Day
11h 12m
Waxing Gibbous, 90% of the Moon is Illuminated
Feb 22
Waxing Gibbous
Feb 25
Full
Mar 4
Last Quarter
Mar 11
New
Mar 19
First Quarter

Hourly Weather History & Observations

Time (EST) Temp. Windchill Dew Point Humidity Pressure Visibility Wind Dir Wind Speed Gust Speed Precip Events Conditions
12:54 AM 42.1 °F 36.6 °F 27.0 °F 55% 30.25 in 10.0 mi ENE 9.2 mph - N/A   Scattered Clouds
6:54 AM 37.9 °F 30.5 °F 28.0 °F 68% 30.32 in 7.0 mi NE 11.5 mph - N/A   Mostly Cloudy
8:54 AM 39.9 °F 35.1 °F 28.9 °F 65% 30.32 in 10.0 mi ENE 6.9 mph - N/A   Mostly Cloudy
9:54 AM 42.1 °F 36.6 °F 30.9 °F 65% 30.31 in 10.0 mi East 9.2 mph - N/A   Overcast
10:54 AM 43.0 °F 36.8 °F 32.0 °F 65% 30.31 in 10.0 mi ENE 11.5 mph - N/A   Overcast
11:54 AM 45.0 °F 41.2 °F 32.0 °F 60% 30.30 in 10.0 mi East 6.9 mph - N/A   Overcast
12:54 PM 45.0 °F 39.3 °F 35.1 °F 68% 30.27 in 10.0 mi NE 11.5 mph - N/A   Overcast
1:54 PM 46.0 °F 41.9 °F 36.0 °F 68% 30.23 in 10.0 mi East 8.1 mph - N/A   Overcast
2:54 PM 44.1 °F 39.0 °F 36.0 °F 73% 30.22 in 10.0 mi ENE 9.2 mph - N/A   Overcast
3:54 PM 45.0 °F 41.8 °F 37.0 °F 74% 30.20 in 10.0 mi East 5.8 mph - N/A   Overcast
4:54 PM 45.0 °F 41.2 °F 37.9 °F 76% 30.19 in 10.0 mi ENE 6.9 mph - 0.00 in   Overcast
5:54 PM 46.0 °F 41.9 °F 39.0 °F 76% 30.19 in 10.0 mi ENE 8.1 mph - N/A   Overcast
6:54 PM 46.0 °F 42.5 °F 41.0 °F 83% 30.18 in 10.0 mi ENE 6.9 mph - N/A   Overcast
7:54 PM 46.9 °F - 41.0 °F 80% 30.19 in 10.0 mi East 8.1 mph - N/A   Overcast
8:54 PM 46.9 °F - 42.1 °F 83% 30.17 in 9.0 mi East 8.1 mph - N/A   Overcast
9:49 PM 46.4 °F 43.5 °F 42.8 °F 87% 30.15 in 10.0 mi East 5.8 mph - N/A   Overcast
9:54 PM 46.9 °F - 43.0 °F 86% 30.14 in 10.0 mi ESE 8.1 mph - N/A   Overcast
10:19 PM 46.4 °F 45.2 °F 42.8 °F 87% 30.16 in 10.0 mi ENE 3.5 mph - N/A   Overcast
10:54 PM 46.9 °F - 44.1 °F 90% 30.13 in 10.0 mi East 4.6 mph - N/A   Mostly Cloudy
11:54 PM 48.0 °F - 45.0 °F 89% 30.10 in 10.0 mi NNE 5.8 mph - N/A   Overcast